Date String (YYYY-MM-DD hh:mm:ss) UTC,Instrument flags,Ambient pressure (hPa),Sample flow (lpm),Bypass flow (lpm),Sample temperature (°C),Ambient temperature (°C),ASC tube jacket temperature (°C),LED temperature (°C),Box temperature (°C),Sample RH (%),Span deviation,Mass concentration (μg/m³),Mass concentration (μg/m³),Mass concentration (μg/m³)
DateTimeUTC,F1_M11,P_M11,Q1_M11,Q2_M11,T1_M11,T2_M11,T3_M11,T4_M11,T5_M11,U1_M11,ZSPAN_M11,X2_M11,X0_M11,X1_M11
2022-09-23 23:00:00,,0825.7,5.01,0.00,29.9,27.8,00.0,38.6,31.7,08.2,0000.0,0001.65,0002.54,0001.27
2022-09-23 23:01:00,,0825.7,5.01,0.00,29.9,28.0,00.0,38.6,31.7,08.1,0000.0,0001.64,0002.51,0001.27
2022-09-23 23:02:00,,0825.6,4.99,0.00,29.9,28.2,00.0,38.6,31.8,08.0,0000.0,0001.62,0002.28,0001.26
2022-09-23 23:03:00,,0825.6,5.01,0.00,29.9,28.4,00.0,38.6,31.9,08.4,0000.0,0001.60,0002.25,0001.27
2022-09-23 23:04:00,,0825.7,4.99,0.00,29.9,28.6,00.0,38.6,31.9,08.1,0000.0,0001.65,0002.42,0001.27
2022-09-23 23:05:00,,0825.7,5.02,0.00,30.0,28.7,00.0,38.6,32.0,07.9,0000.0,0001.70,0002.54,0001.28
2022-09-23 23:06:00,,0825.7,5.00,0.00,30.0,28.8,00.0,38.6,32.0,08.3,0000.0,0001.74,0002.86,0001.28
2022-09-23 23:07:00,,0825.7,4.99,0.00,30.0,28.9,00.0,38.7,32.0,08.5,0000.0,0001.72,0003.27,0001.28
2022-09-23 23:08:00,,0825.7,5.00,0.00,30.1,29.0,00.0,38.7,32.1,08.3,0000.0,0001.76,0004.32,0001.28
2022-09-23 23:09:00,,0825.8,5.02,0.00,30.1,28.1,00.0,38.7,32.0,08.3,0000.0,0001.77,0004.36,0001.27
2022-09-23 23:10:00,,0825.7,5.00,0.00,30.0,27.2,00.0,38.7,31.9,08.4,0000.0,0001.79,0004.41,0001.28
2022-09-23 23:11:00,,0825.7,4.99,0.00,30.0,27.3,00.0,38.6,31.9,08.4,0000.0,0001.85,0004.57,0001.28
2022-09-23 23:12:00,,0825.8,4.99,0.00,30.0,27.5,00.0,38.6,31.7,07.9,0000.0,0001.88,0004.64,0001.29
2022-09-23 23:13:00,,0826.0,5.01,0.00,29.9,27.7,00.0,38.6,31.8,08.2,0000.0,0001.95,0004.90,0001.30
2022-09-23 23:14:00,,0825.7,5.01,0.00,30.0,28.0,00.0,38.6,31.8,08.0,0000.0,0001.96,0005.01,0001.31
2022-09-23 23:15:00,,0825.7,4.99,0.00,30.0,28.2,00.0,38.6,31.9,07.9,0000.0,0001.94,0004.87,0001.32
2022-09-23 23:16:00,,0825.7,5.01,0.00,30.0,28.4,00.0,38.6,31.9,08.4,0000.0,0001.93,0004.84,0001.31
2022-09-23 23:17:00,,0825.8,4.99,0.00,30.0,28.6,00.0,38.7,32.0,08.2,0000.0,0001.91,0004.79,0001.31
2022-09-23 23:18:00,,0825.9,4.99,0.00,30.0,28.7,00.0,38.7,32.0,08.2,0000.0,0001.91,0004.50,0001.31
2022-09-23 23:19:00,,0825.8,5.00,0.00,30.1,28.9,00.0,38.7,32.0,08.5,0000.0,0001.88,0003.53,0001.30
2022-09-23 23:20:00,,0826.0,5.00,0.00,30.1,29.0,00.0,38.7,32.1,08.3,0000.0,0001.91,0003.60,0001.30
2022-09-23 23:21:00,,0825.9,4.99,0.00,30.1,29.1,00.0,38.8,32.1,07.8,0000.0,0001.91,0003.67,0001.30
2022-09-23 23:22:00,,0825.9,5.01,0.00,30.2,28.6,00.0,38.8,32.1,08.0,0000.0,0001.90,0003.74,0001.30
2022-09-23 23:23:00,,0825.9,4.99,0.00,30.1,27.1,00.0,38.7,31.9,08.0,0000.0,0001.88,0003.71,0001.30
2022-09-23 23:24:00,,0825.8,5.00,0.00,30.1,26.5,00.0,38.7,31.9,08.5,0000.0,0001.87,0003.63,0001.31
2022-09-23 23:25:00,,0825.9,4.99,0.00,30.0,26.8,00.0,38.6,31.8,08.9,0000.0,0001.85,0003.52,0001.31
2022-09-23 23:26:00,,0825.9,5.01,0.00,30.0,27.1,00.0,38.6,31.7,09.0,0000.0,0001.82,0003.47,0001.30
2022-09-23 23:27:00,,0825.9,5.01,0.00,29.9,27.4,00.0,38.6,31.7,09.1,0000.0,0001.79,0003.49,0001.29
2022-09-23 23:28:00,,0825.8,5.00,0.00,29.9,27.7,00.0,38.6,31.7,07.9,0000.0,0001.75,0003.86,0001.29
2022-09-23 23:29:00,,0825.8,4.99,0.00,29.9,28.0,00.0,38.6,31.7,08.2,0000.0,0001.75,0003.66,0001.28
2022-09-23 23:30:00,,0825.8,5.01,0.00,29.9,28.2,00.0,38.6,31.8,08.7,0000.0,0001.74,0003.64,0001.27
2022-09-23 23:31:00,,0825.9,5.01,0.00,29.9,28.4,00.0,38.6,31.8,08.8,0000.0,0001.71,0003.54,0001.27
2022-09-23 23:32:00,,0825.9,4.99,0.00,30.0,28.6,00.0,38.6,31.9,08.2,0000.0,0001.71,0003.52,0001.27
2022-09-23 23:33:00,,0825.9,5.00,0.00,30.0,28.7,00.0,38.7,32.0,08.8,0000.0,0001.74,0004.69,0001.27
2022-09-23 23:34:00,,0825.9,5.01,0.00,30.0,28.9,00.0,38.7,32.0,08.9,0000.0,0001.79,0004.80,0001.27
2022-09-23 23:35:00,,0825.8,5.00,0.00,30.1,29.0,00.0,38.7,32.1,08.7,0000.0,0001.75,0004.68,0001.27
2022-09-23 23:36:00,,0825.9,4.99,0.00,30.1,29.1,00.0,38.7,32.1,08.4,0000.0,0001.75,0004.63,0001.28
2022-09-23 23:37:00,,0825.9,4.99,0.00,30.1,29.1,00.0,38.7,32.1,08.3,0000.0,0001.80,0004.86,0001.29
2022-09-23 23:38:00,,0826.0,5.01,0.00,30.2,28.6,00.0,38.7,32.1,08.7,0000.0,0001.85,0005.07,0001.30
2022-09-23 23:39:00,,0825.9,4.99,0.00,30.1,27.4,00.0,38.7,32.0,08.8,0000.0,0001.87,0004.55,0001.31
2022-09-23 23:40:00,,0825.9,5.00,0.00,30.1,27.3,00.0,38.7,32.0,08.8,0000.0,0001.91,0004.63,0001.33
2022-09-23 23:41:00,,0825.9,5.00,0.00,30.1,27.5,00.0,38.7,31.9,08.6,0000.0,0001.92,0004.69,0001.35
2022-09-23 23:42:00,,0825.9,5.00,0.00,30.1,27.8,00.0,38.7,31.9,08.9,0000.0,0001.93,0004.70,0001.37
2022-09-23 23:43:00,,0826.0,5.01,0.00,30.0,28.0,00.0,38.7,31.9,08.8,0000.0,0001.92,0004.66,0001.38
2022-09-23 23:44:00,,0826.0,4.99,0.00,30.0,28.3,00.0,38.7,32.0,08.5,0000.0,0001.91,0003.65,0001.39
2022-09-23 23:45:00,,0826.0,5.01,0.00,30.1,28.5,00.0,38.7,32.0,08.5,0000.0,0001.86,0003.28,0001.39
2022-09-23 23:46:00,,0826.0,4.99,0.00,30.1,28.7,00.0,38.7,32.0,08.8,0000.0,0001.84,0003.23,0001.40
2022-09-23 23:47:00,,0826.0,4.99,0.00,30.1,28.9,00.0,38.8,32.1,08.8,0000.0,0001.86,0003.29,0001.41
2022-09-23 23:48:00,,0826.0,5.00,0.00,30.1,29.0,00.0,38.8,32.1,09.3,0000.0,0001.87,0003.25,0001.42
2022-09-23 23:49:00,,0826.1,4.99,0.00,30.2,29.1,00.0,38.8,32.2,09.3,0000.0,0001.88,0003.11,0001.42
2022-09-23 23:50:00,,0826.0,4.99,0.00,30.2,29.2,00.0,38.8,32.2,08.9,0000.0,0001.91,0003.22,0001.43
2022-09-23 23:51:00,,0826.1,5.00,0.00,30.3,29.1,00.0,38.8,32.2,08.7,0000.0,0001.90,0003.22,0001.44
2022-09-23 23:52:00,,0826.0,5.00,0.00,30.2,27.7,00.0,38.8,32.1,09.3,0000.0,0001.93,0003.22,0001.45
2022-09-23 23:53:00,,0826.1,5.00,0.00,30.2,26.6,00.0,38.8,31.9,09.3,0000.0,0001.96,0003.24,0001.46
2022-09-23 23:54:00,,0826.2,5.00,0.00,30.1,26.6,00.0,38.7,31.8,09.5,0000.0,0001.99,0003.32,0001.46
2022-09-23 23:55:00,,0826.2,5.00,0.00,30.0,26.9,00.0,38.7,31.7,09.5,0000.0,0002.03,0003.36,0001.48
2022-09-23 23:56:00,,0826.2,5.00,0.00,30.0,27.3,00.0,38.7,31.7,08.4,0000.0,0002.05,0003.42,0001.49
2022-09-23 23:57:00,,0826.2,5.00,0.00,30.0,27.6,00.0,38.7,31.8,08.6,0000.0,0002.10,0004.68,0001.49
2022-09-23 23:58:00,,0826.1,4.99,0.00,30.0,28.0,00.0,38.7,31.8,09.1,0000.0,0002.10,0004.69,0001.50
2022-09-23 23:59:00,,0826.2,5.01,0.00,30.0,28.2,00.0,38.7,31.9,09.5,0000.0,0002.11,0004.82,0001.50
